Longview, TX

4:54 AM CDT on May 25, 2017 (GMT -0500)
Gregg County

Weather History for KGGG - August, 2013

Change the Weather History Date:

Thursday, August 29, 2013

  Actual Average Record
Temperature  
Mean Temperature 90 °F 81 °F  
Max Temperature 102 °F 93 °F 103 °F (2000)
Min Temperature 77 °F 70 °F 55 °F (1992)
Degree Days  
Heating Degree Days 0 0  
Month to date heating degree days 0 0  
Since 1 June heating degree days 0 0  
Since 1 July heating degree days 0 0  
Cooling Degree Days 25 16  
Month to date cooling degree days 592 519  
Year to date cooling degree days 2048 1909  
Since 1 June cooling degree days 1660 1530  
Growing Degree Days 39 (Base 50)    
Moisture  
Dew Point 65 °F    
Average Humidity 51    
Maximum Humidity 74    
Minimum Humidity 27    
Precipitation  
Precipitation 0.00 in 0.10 in 1.62 in (1974)
Month to date precipitation 1.06 2.80  
Year to date precipitation 20.33 30.43  
Snow  
Snow 0.00 in - - ()
Month to date snowfall 0.0  
Since 1 June snowfall 0.0  
Since 1 July snowfall 0.0  
Snow Depth 0.00 in    
Sea Level Pressure  
Sea Level Pressure 29.99 in    
Wind  
Wind Speed 5 mph (SE)    
Max Wind Speed 12 mph    
Max Gust Speed 15 mph    
Visibility 10 miles    
Events      
T = Trace of Precipitation, MM = Missing Value Source: NWS Daily Summary

Daily Weather History Graph

Daily Weather History Graph

Search for Another Location

Airport or City:

Trip Planner

Search our weather history database for the weather conditions in past years. The results will help you decide how hot, cold, wet, or windy it might be!

Date:

Astronomy

Aug. 29, 2013 Rise Set
Actual Time 6:52 AM CDT 7:46 PM CDT
Civil Twilight 6:26 AM CDT 8:11 PM CDT
Nautical Twilight 5:57 AM CDT 8:41 PM CDT
Astronomical Twilight 5:26 AM CDT 9:11 PM CDT
Moon 12:54 AM CDT (8/29) 3:05 PM CDT (8/29)
Length of Visible Light 13h 44m
Length of Day
12h 54m
Last Quarter, 38% of the Moon is Illuminated
Aug 29
Last Quarter
Sep 5
New
Sep 12
First Quarter
Sep 19
Full
Sep 26
Last Quarter

Hourly Weather History & Observations

Time (CDT) Temp. Heat Index Dew Point Humidity Pressure Visibility Wind Dir Wind Speed Gust Speed Precip Events Conditions
12:53 AM 84.9 °F 86.6 °F 64.9 °F 51% 29.99 in 10.0 mi SE 6.9 mph - N/A   Scattered Clouds
1:53 AM 84.0 °F 86.3 °F 66.0 °F 55% 30.00 in 10.0 mi SSE 9.2 mph - N/A   Partly Cloudy
2:53 AM 82.9 °F 85.0 °F 66.0 °F 56% 30.01 in 10.0 mi SSE 8.1 mph - N/A   Scattered Clouds
3:53 AM 81.0 °F 83.3 °F 66.9 °F 62% 30.00 in 10.0 mi Calm Calm - N/A   Clear
4:53 AM 78.1 °F - 66.9 °F 68% 30.01 in 10.0 mi Calm Calm - N/A   Mostly Cloudy
5:53 AM 79.0 °F - 68.0 °F 69% 30.01 in 10.0 mi South 3.5 mph - N/A   Mostly Cloudy
6:53 AM 78.1 °F - 69.1 °F 74% 30.02 in 10.0 mi Calm Calm - N/A   Mostly Cloudy
7:53 AM 79.0 °F - 69.1 °F 72% 30.04 in 9.0 mi ESE 3.5 mph - N/A   Mostly Cloudy
8:53 AM 82.9 °F 86.5 °F 69.1 °F 63% 30.05 in 10.0 mi Calm Calm - N/A   Clear
9:53 AM 87.1 °F 91.3 °F 69.1 °F 55% 30.05 in 10.0 mi SW 3.5 mph - N/A   Scattered Clouds
10:53 AM 93.0 °F 96.4 °F 66.9 °F 42% 30.05 in 10.0 mi Variable 3.5 mph - N/A   Clear
11:53 AM 95.0 °F 96.0 °F 63.0 °F 34% 30.03 in 10.0 mi Variable 6.9 mph - N/A   Scattered Clouds
12:53 PM 97.0 °F 98.3 °F 63.0 °F 32% 30.01 in 10.0 mi Variable 4.6 mph - N/A   Scattered Clouds
1:53 PM 99.0 °F 100.5 °F 63.0 °F 30% 29.99 in 10.0 mi Variable 6.9 mph - N/A   Scattered Clouds
2:53 PM 100.0 °F 101.2 °F 61.0 °F 28% 29.96 in 10.0 mi East 8.1 mph - N/A   Scattered Clouds
3:53 PM 99.0 °F 99.5 °F 60.1 °F 28% 29.95 in 10.0 mi East 5.8 mph - N/A   Mostly Cloudy
4:53 PM 99.0 °F 99.5 °F 60.1 °F 28% 29.93 in 10.0 mi East 5.8 mph - N/A   Overcast
5:53 PM 99.0 °F 99.5 °F 61.0 °F 28% 29.92 in 10.0 mi East 6.9 mph - N/A   Mostly Cloudy
6:53 PM 98.1 °F 98.6 °F 61.0 °F 29% 29.92 in 10.0 mi East 9.2 mph - N/A   Partly Cloudy
7:53 PM 91.9 °F 92.9 °F 63.0 °F 38% 29.94 in 10.0 mi ESE 5.8 mph - N/A   Clear
8:53 PM 90.0 °F 91.3 °F 64.0 °F 42% 29.94 in 10.0 mi ESE 5.8 mph - N/A   Clear
9:53 PM 88.0 °F 88.7 °F 63.0 °F 43% 29.96 in 10.0 mi ESE 5.8 mph - N/A   Clear
10:53 PM 82.9 °F 84.0 °F 63.0 °F 51% 29.97 in 10.0 mi SSE 6.9 mph - N/A   Clear
11:53 PM 84.0 °F 84.5 °F 62.1 °F 47% 29.97 in 10.0 mi SE 5.8 mph - N/A   Clear